Weather History for Beaumont / Port Arthur, TX

Change the Weather History Date:

Sunday, June 23, 2013

  Actual Average (KBPT) Record (KBPT)
Temperature  
Mean Temperature 82 °F 82 °F  
Max Temperature 92 °F 90 °F 100 °F (1944)
Min Temperature 72 °F 74 °F 64 °F (1902)
Degree Days  
Heating Degree Days 0 0  
Month to date heating degree days 0  
Since 1 June heating degree days 0  
Since 1 July heating degree days 1401  
Cooling Degree Days 16 17  
Month to date cooling degree days 364  
Year to date cooling degree days 930  
Since 1 June cooling degree days 364  
Growing Degree Days 32 (Base 50)    
Moisture  
Dew Point 74 °F    
Average Humidity 80    
Maximum Humidity 100    
Minimum Humidity 48    
Precipitation  
Precipitation 0.00 in 0.27 in 2.92 in (1982)
Month to date precipitation 5.31  
Year to date precipitation 26.12  
Snow  
Snow 0.00 in 0.00 in 0.00 in ()
Month to date snowfall 0.0  
Since 1 June snowfall 0.0  
Since 1 July snowfall T  
Snow Depth -    
Sea Level Pressure  
Sea Level Pressure 30.00 in    
Wind  
Wind Speed 3 mph (SSE)    
Max Wind Speed 14 mph    
Max Gust Speed 17 mph    
Visibility 9 miles    
Events Fog , Thunderstorm    
T = Trace of Precipitation, MM = Missing Value Source: NWS Daily Summary

Daily Weather History Graph

Daily Weather History Graph

Search for Another Location

Airport:

Trip Planner

Search our weather history database for the weather conditions in past years. The results will help you decide how hot, cold, wet, or windy it might be!

Date:

Astronomy

Jun. 23, 2013 Rise Set
Actual Time 6:16 AM CDT 8:21 PM CDT
Civil Twilight 5:49 AM CDT 8:49 PM CDT
Nautical Twilight 5:15 AM CDT 9:22 PM CDT
Astronomical Twilight 4:39 AM CDT 9:58 PM CDT
Moon 8:40 PM CDT (6/23) 6:30 AM CDT (6/23)
Length of Visible Light 14h 59m
Length of Day
14h 04m
Full, 100% of the Moon is Illuminated
Jun 23
Full
Jun 29
Last Quarter
Jul 8
New
Jul 15
First Quarter
Jul 22
Full

Hourly Weather History & Observations

Time (CDT) Temp. Heat Index Dew Point Humidity Pressure Visibility Wind Dir Wind Speed Gust Speed Precip Events Conditions
12:15 AM 75.4 °F - 75.4 °F 100% 30.02 in 10.0 mi Calm Calm - N/A   Clear
12:35 AM 74.8 °F - 74.8 °F 100% 30.02 in 10.0 mi Calm Calm - N/A   Clear
12:55 AM 74.3 °F - 74.3 °F 100% 30.01 in 10.0 mi North - - N/A   Clear
1:15 AM 74.1 °F - 74.1 °F 100% 30.01 in 10.0 mi Calm Calm - N/A   Clear
1:35 AM 74.1 °F - 74.1 °F 100% 30.01 in 7.0 mi Calm Calm - N/A   Clear
1:55 AM 74.1 °F - 74.1 °F 100% 30.00 in 10.0 mi Calm Calm - N/A   Clear
2:15 AM 73.9 °F - 73.9 °F 100% 30.00 in 10.0 mi Calm Calm - N/A   Clear
2:35 AM 74.3 °F - 74.3 °F 100% 29.99 in 10.0 mi SE 3.5 mph - N/A   Clear
2:55 AM 74.3 °F - 74.3 °F 100% 29.99 in 10.0 mi Calm Calm - N/A   Clear
3:15 AM 73.8 °F - 73.8 °F 100% 29.99 in 7.0 mi Calm Calm - N/A   Clear
3:35 AM 73.9 °F - 73.9 °F 100% 29.99 in 10.0 mi Calm Calm - N/A   Clear
3:55 AM 74.3 °F - 74.3 °F 100% 30.00 in 10.0 mi Calm Calm - N/A   Clear
4:15 AM 73.9 °F - 73.9 °F 100% 29.99 in 10.0 mi Calm Calm - N/A   Clear
4:35 AM 73.9 °F - 73.9 °F 100% 29.99 in 7.0 mi Calm Calm - N/A   Clear
4:55 AM 72.7 °F - 72.7 °F 100% 29.99 in 5.0 mi Calm Calm - N/A   Clear
5:15 AM 73.6 °F - 73.6 °F 100% 29.99 in 7.0 mi Calm Calm - N/A   Clear
5:35 AM 72.9 °F - 72.9 °F 100% 29.99 in 4.0 mi Calm Calm - N/A   Clear
5:55 AM 72.7 °F - 72.7 °F 100% 30.00 in 2.0 mi Calm Calm - N/A   Clear
6:15 AM 72.9 °F - 72.9 °F 100% 30.00 in 0.5 mi Calm Calm - N/A Fog Fog
6:35 AM 72.5 °F - 72.5 °F 100% 30.00 in 7.0 mi Calm Calm - N/A   Scattered Clouds
6:55 AM 73.8 °F - 73.8 °F 100% 30.00 in 7.0 mi Calm Calm - N/A   Clear
7:15 AM 75.9 °F - 75.9 °F 100% 30.00 in 10.0 mi Calm Calm - N/A   Mostly Cloudy
7:35 AM 77.9 °F - 77.9 °F 100% 30.01 in 10.0 mi Calm Calm - N/A   Overcast
7:55 AM 79.5 °F - 79.5 °F 100% 30.02 in 10.0 mi Calm Calm - N/A   Mostly Cloudy
8:15 AM 81.0 °F 89.2 °F 79.2 °F 94% 30.02 in 10.0 mi North - - N/A   Scattered Clouds
8:35 AM 82.6 °F 92.0 °F 78.1 °F 86% 30.02 in 10.0 mi North - - N/A   Scattered Clouds
8:55 AM 84.0 °F 93.3 °F 76.5 °F 78% 30.03 in 10.0 mi ESE 4.6 mph - N/A   Clear
9:15 AM 85.1 °F 94.1 °F 75.6 °F 73% 30.03 in 10.0 mi North - - N/A   Scattered Clouds
9:35 AM 84.7 °F 92.8 °F 74.8 °F 72% 30.03 in 10.0 mi South 5.8 mph - N/A   Mostly Cloudy
9:55 AM 86.5 °F 95.0 °F 74.5 °F 67% 30.04 in 10.0 mi SSE 5.8 mph - N/A   Overcast
10:15 AM 84.2 °F 92.6 °F 75.6 °F 75% 30.04 in 10.0 mi North - - N/A   Scattered Clouds
10:35 AM 87.6 °F 97.1 °F 75.2 °F 66% 30.04 in 10.0 mi East 6.9 mph - N/A   Scattered Clouds
10:55 AM 86.2 °F 95.1 °F 75.0 °F 69% 30.05 in 10.0 mi North - - N/A   Scattered Clouds
11:15 AM 84.9 °F 88.8 °F 68.9 °F 59% 30.05 in 10.0 mi West 4.6 mph - N/A   Mostly Cloudy
11:35 AM 89.4 °F 96.8 °F 72.1 °F 57% 30.05 in 10.0 mi ENE 10.4 mph - N/A   Mostly Cloudy
11:55 AM 85.1 °F 91.5 °F 72.5 °F 66% 30.05 in 10.0 mi East 6.9 mph - N/A Thunderstorm Overcast
12:15 PM 84.0 °F 92.9 °F 76.3 °F 77% 30.05 in 10.0 mi East 9.2 mph - N/A   Overcast
12:35 PM 86.2 °F 94.2 °F 74.1 °F 67% 30.04 in 10.0 mi East 5.8 mph - N/A   Scattered Clouds
12:55 PM 87.3 °F 95.8 °F 74.3 °F 65% 30.03 in 10.0 mi North - - N/A   Clear
1:15 PM 90.5 °F 99.2 °F 73.6 °F 57% 30.03 in 10.0 mi SE 9.2 mph - N/A   Clear
1:35 PM 90.7 °F 99.0 °F 73.0 °F 56% 30.02 in 10.0 mi SSE 8.1 mph - N/A   Scattered Clouds
1:55 PM 88.5 °F 96.8 °F 73.8 °F 61% 30.02 in 10.0 mi WSW 3.5 mph - N/A   Mostly Cloudy
2:15 PM 88.9 °F 96.6 °F 72.7 °F 59% 30.01 in 10.0 mi SSW 6.9 mph - N/A   Mostly Cloudy
2:35 PM 88.7 °F 97.2 °F 73.8 °F 61% 30.00 in 10.0 mi SW 6.9 mph - N/A   Mostly Cloudy
2:55 PM 87.8 °F 95.6 °F 73.2 °F 62% 30.00 in 10.0 mi SW 6.9 mph - N/A   Overcast
3:15 PM 89.6 °F 98.2 °F 73.6 °F 59% 29.99 in 10.0 mi SW 11.5 mph - N/A   Overcast
3:35 PM 91.6 °F 98.8 °F 72.0 °F 52% 29.98 in 10.0 mi SSW 9.2 mph 16.1 mph N/A   Mostly Cloudy
3:55 PM 91.9 °F 97.4 °F 70.0 °F 48% 29.98 in 10.0 mi SSW 13.8 mph - N/A   Mostly Cloudy
4:15 PM 91.6 °F 96.7 °F 69.4 °F 48% 29.98 in 10.0 mi SW 8.1 mph - N/A   Scattered Clouds
4:35 PM 91.4 °F 96.3 °F 69.4 °F 48% 29.98 in 10.0 mi South 9.2 mph 17.3 mph N/A Thunderstorm Scattered Clouds
4:55 PM 91.6 °F 97.2 °F 69.8 °F 49% 29.98 in 10.0 mi SSE 8.1 mph - N/A   Scattered Clouds
5:15 PM 91.2 °F 96.5 °F 69.6 °F 49% 29.97 in 10.0 mi South 8.1 mph - N/A   Clear
5:35 PM 90.5 °F 95.5 °F 69.8 °F 50% 29.97 in 10.0 mi South 6.9 mph - N/A   Clear
5:55 PM 89.6 °F 95.7 °F 71.1 °F 54% 29.97 in 10.0 mi SSE 5.8 mph - N/A   Scattered Clouds
6:15 PM 89.4 °F 94.4 °F 69.4 °F 52% 29.97 in 10.0 mi South 8.1 mph - N/A   Scattered Clouds
6:35 PM 88.7 °F 93.9 °F 70.0 °F 54% 29.97 in 10.0 mi South 8.1 mph - N/A   Clear
6:55 PM 87.8 °F 93.0 °F 70.5 °F 56% 29.97 in 10.0 mi South 6.9 mph - N/A   Clear
7:15 PM 87.1 °F 92.8 °F 71.1 °F 59% 29.98 in 10.0 mi South 6.9 mph - N/A   Clear
7:35 PM 85.8 °F 91.5 °F 71.4 °F 62% 29.98 in 10.0 mi South 6.9 mph - N/A   Clear
7:55 PM 84.2 °F 90.6 °F 72.9 °F 69% 29.98 in 10.0 mi South 6.9 mph - N/A   Clear
8:15 PM 82.6 °F 88.6 °F 73.4 °F 74% 29.99 in 10.0 mi North - - N/A   Clear
8:35 PM 81.7 °F 87.3 °F 73.8 °F 77% 29.99 in 10.0 mi North - - N/A   Clear
8:55 PM 80.6 °F 86.0 °F 75.0 °F 83% 29.99 in 10.0 mi North - - N/A   Clear
9:15 PM 80.2 °F 86.1 °F 76.6 °F 89% 29.99 in 10.0 mi North - - N/A   Clear
9:35 PM 79.3 °F - 77.7 °F 95% 30.00 in 10.0 mi North - - N/A   Clear
9:55 PM 79.2 °F - 77.9 °F 96% 30.00 in 10.0 mi North - - N/A   Clear
10:15 PM 78.8 °F - 78.1 °F 98% 30.01 in 10.0 mi North - - N/A   Clear
10:35 PM 77.7 °F - 77.7 °F 100% 30.01 in 10.0 mi SE 3.5 mph - N/A   Clear
10:55 PM 78.1 °F - 78.1 °F 100% 30.01 in 10.0 mi North - - N/A   Scattered Clouds
11:15 PM 77.9 °F - 77.9 °F 100% 30.02 in 10.0 mi ESE 3.5 mph - N/A   Scattered Clouds
11:35 PM 77.9 °F - 77.9 °F 100% 30.02 in 10.0 mi North - - N/A   Clear
11:55 PM 77.9 °F - 77.9 °F 100% 30.02 in 10.0 mi North - - N/A   Clear